Colorado City, AZ

11:11 AM MST on November 22, 2019 (GMT -0700)
Colorado City Municipal

Weather History for KAZC - September, 2019

Change the Weather History Date:

Thursday, September 5, 2019

  Actual Average (KSGU) Record (KSGU)
Temperature  
Mean Temperature 26 °C -  
Max Temperature 37 °C 35 °C 40 °C (1984)
Min Temperature 16 °C 17 °C 10 °C (1941)
Cooling Degree Days 14    
Growing Degree Days 29 (Base 50)    
Moisture  
Dew Point 11 °C    
Average Humidity 46    
Maximum Humidity 78    
Minimum Humidity 16    
Precipitation  
Precipitation 2.29 mm - - ()
Sea Level Pressure  
Sea Level Pressure 1024 hPa    
Wind  
Wind Speed 5 km/h (SSE)    
Max Wind Speed 26 km/h    
Max Gust Speed 45 km/h    
Visibility 16 kilometers    
Events Rain , Thunderstorm    
Averages and records for this station are not official NWS values.
T = Trace of Precipitation, MM = Missing Value Source: NWS Daily Summary

Daily Weather History Graph

Daily Weather History Graph

Search for Another Location

Airport or City:

Astronomy

Sep. 05, 2019 Rise Set
Actual Time 6:06 AM MST 6:54 PM MST
Civil Twilight 5:39 AM MST 7:21 PM MST
Nautical Twilight 5:08 AM MST 7:52 PM MST
Astronomical Twilight 4:36 AM MST 8:24 PM MST
Moon 1:06 PM MST (9/5) 11:23 PM MST (9/5)
Length of Visible Light 13h 41m
Length of Day
12h 48m
Waxing Crescent, 46% of the Moon is Illuminated
Sep 5
Waxing Crescent
Sep 5
First Quarter
Sep 13
Full
Sep 21
Last Quarter
Sep 28
New

Hourly Weather History & Observations

Time (MST) Temp. Heat Index Dew Point Humidity Pressure Visibility Wind Dir Wind Speed Gust Speed Precip Events Conditions
12:15 AM 23.0 °C - 11.0 °C 47% 1022.9 hPa - ESE 5.6 km/h / 1.5 m/s - N/A   Clear
12:35 AM 23.0 °C - 10.0 °C 44% 1022.9 hPa - Calm Calm - N/A   Clear
12:55 AM 23.0 °C - 10.0 °C 44% 1022.9 hPa - Calm Calm - N/A   Clear
1:15 AM 23.0 °C - 10.0 °C 44% 1023.2 hPa - Calm Calm - N/A   Clear
1:35 AM 22.0 °C - 11.0 °C 50% 1023.2 hPa - Calm Calm - N/A   Clear
1:55 AM 22.0 °C - 11.0 °C 50% 1023.6 hPa - Calm Calm - N/A   Clear
2:15 AM 21.0 °C - 12.0 °C 56% 1023.6 hPa - Calm Calm - N/A   Clear
2:35 AM 20.0 °C - 11.0 °C 56% 1023.2 hPa - NNE 11.1 km/h / 3.1 m/s - N/A   Clear
2:55 AM 20.0 °C - 11.0 °C 56% 1023.6 hPa - Calm Calm - N/A   Clear
3:15 AM 19.0 °C - 11.0 °C 60% 1023.6 hPa - Calm Calm - N/A   Clear
3:35 AM 20.0 °C - 11.0 °C 56% 1023.6 hPa - NE 5.6 km/h / 1.5 m/s - N/A   Clear
3:55 AM 18.0 °C - 11.0 °C 64% 1023.9 hPa - Calm Calm - N/A   Clear
4:15 AM 17.0 °C - 11.0 °C 68% 1023.9 hPa - East 9.3 km/h / 2.6 m/s - N/A   Clear
4:35 AM 17.0 °C - 11.0 °C 68% 1023.9 hPa - East 5.6 km/h / 1.5 m/s - N/A   Clear
4:55 AM 17.0 °C - 11.0 °C 68% 1024.3 hPa - ESE 7.4 km/h / 2.1 m/s - N/A   Clear
5:15 AM 17.0 °C - 11.0 °C 68% 1024.6 hPa - Calm Calm - N/A   Clear
5:35 AM 17.0 °C - 11.0 °C 68% 1024.3 hPa - Calm Calm - N/A   Clear
5:55 AM 17.0 °C - 11.0 °C 68% 1024.6 hPa 16.1 km South 7.4 km/h / 2.1 m/s - N/A   Clear
6:15 AM 16.0 °C - 10.0 °C 68% 1024.6 hPa 16.1 km SE 11.1 km/h / 3.1 m/s - N/A   Clear
6:35 AM 17.0 °C - 11.0 °C 68% 1024.9 hPa 16.1 km East 11.1 km/h / 3.1 m/s - N/A   Clear
6:55 AM 19.0 °C - 11.0 °C 60% 1025.3 hPa 16.1 km SSE 5.6 km/h / 1.5 m/s - N/A   Clear
7:15 AM 22.0 °C - 11.0 °C 50% 1025.3 hPa 16.1 km Calm Calm - N/A   Clear
7:35 AM 25.0 °C - 11.0 °C 41% 1025.3 hPa 16.1 km Calm Calm - N/A   Clear
7:55 AM 26.0 °C - 11.0 °C 39% 1025.3 hPa 16.1 km Calm Calm - N/A   Clear
8:15 AM 28.0 °C - 10.0 °C 32% 1025.3 hPa 16.1 km East 9.3 km/h / 2.6 m/s - N/A   Clear
8:35 AM 29.0 °C - 10.0 °C 30% 1026.0 hPa 16.1 km SE 13.0 km/h / 3.6 m/s - N/A   Clear
8:55 AM 30.0 °C - 10.0 °C 29% 1025.6 hPa 16.1 km ESE 7.4 km/h / 2.1 m/s - N/A   Clear
9:15 AM 30.0 °C - 9.0 °C 27% 1026.0 hPa 16.1 km Calm Calm - N/A   Clear
9:35 AM 31.0 °C - 10.0 °C 27% 1026.0 hPa 16.1 km SE 7.4 km/h / 2.1 m/s - N/A   Clear
9:55 AM 31.0 °C - 9.0 °C 25% 1026.0 hPa 16.1 km SSE 5.6 km/h / 1.5 m/s - N/A   Clear
10:15 AM 32.0 °C - 9.0 °C 24% 1025.6 hPa 16.1 km Calm Calm - N/A   Clear
10:35 AM 33.0 °C - 9.0 °C 23% 1025.6 hPa 16.1 km ESE 7.4 km/h / 2.1 m/s - N/A   Clear
10:55 AM 33.0 °C - 8.0 °C 21% 1025.3 hPa 16.1 km SSE 13.0 km/h / 3.6 m/s - N/A   Clear
11:15 AM 33.0 °C - 8.0 °C 21% 1025.3 hPa 16.1 km Calm Calm - N/A   Clear
11:35 AM 34.0 °C - 8.0 °C 20% 1025.3 hPa 16.1 km SE 9.3 km/h / 2.6 m/s - N/A   Clear
11:55 AM 35.0 °C - 7.0 °C 18% 1024.9 hPa 16.1 km Calm Calm - N/A   Clear
12:15 PM 35.0 °C - 8.0 °C 19% 1024.6 hPa 16.1 km Calm Calm - N/A   Clear
12:35 PM 36.0 °C - 8.0 °C 18% 1024.6 hPa 16.1 km Calm Calm - N/A   Clear
12:55 PM 36.0 °C - 7.0 °C 17% 1024.6 hPa 16.1 km Calm Calm - N/A   Clear
1:15 PM 36.0 °C - 8.0 °C 18% 1023.9 hPa 16.1 km West 13.0 km/h / 3.6 m/s - N/A   Scattered Clouds
1:35 PM 36.0 °C - 8.0 °C 18% 1023.9 hPa 16.1 km West 11.1 km/h / 3.1 m/s - N/A   Scattered Clouds
1:55 PM 36.0 °C - 7.0 °C 17% 1023.6 hPa 16.1 km NNW 14.8 km/h / 4.1 m/s - N/A   Scattered Clouds
2:15 PM 36.0 °C - 7.0 °C 17% 1023.2 hPa 16.1 km SW 5.6 km/h / 1.5 m/s - N/A   Scattered Clouds
2:35 PM 36.0 °C - 7.0 °C 17% 1022.6 hPa 16.1 km North 11.1 km/h / 3.1 m/s - N/A   Scattered Clouds
2:55 PM 36.0 °C - 7.0 °C 17% 1022.6 hPa 16.1 km West 9.3 km/h / 2.6 m/s 14.8 km/h / 4.1 m/s N/A   Scattered Clouds
3:15 PM 37.0 °C - 7.0 °C 16% 1022.2 hPa 16.1 km Calm Calm - N/A   Mostly Cloudy
3:35 PM 36.0 °C - 7.0 °C 17% 1021.9 hPa 16.1 km SSW 11.1 km/h / 3.1 m/s - N/A   Mostly Cloudy
3:55 PM 35.0 °C - 7.0 °C 18% 1021.9 hPa 16.1 km NNW 11.1 km/h / 3.1 m/s - N/A   Mostly Cloudy
4:15 PM 29.0 °C 28.6 °C 14.0 °C 40% 1022.6 hPa 3.2 km SSW 25.9 km/h / 7.2 m/s 44.4 km/h / 12.3 m/s 1.8 mm Rain Heavy Rain
4:35 PM 24.0 °C - 16.0 °C 61% 1022.6 hPa 16.1 km West 24.1 km/h / 6.7 m/s 38.9 km/h / 10.8 m/s 2.3 mm Rain , Thunderstorm Light Thunderstorms and Rain
4:55 PM 23.0 °C - 17.0 °C 69% 1023.6 hPa 16.1 km WSW 20.4 km/h / 5.7 m/s - 2.3 mm   Scattered Clouds
5:15 PM 23.0 °C - 17.0 °C 69% 1023.6 hPa 16.1 km SW 14.8 km/h / 4.1 m/s - N/A Thunderstorm Clear
5:35 PM 24.0 °C - 16.0 °C 61% 1023.9 hPa 16.1 km WSW 22.2 km/h / 6.2 m/s 31.5 km/h / 8.7 m/s N/A   Mostly Cloudy
5:55 PM 25.0 °C - 13.0 °C 47% 1023.9 hPa 16.1 km WSW 16.7 km/h / 4.6 m/s 24.1 km/h / 6.7 m/s N/A   Scattered Clouds
6:15 PM 24.0 °C - 13.0 °C 50% 1024.6 hPa 16.1 km WSW 16.7 km/h / 4.6 m/s 29.6 km/h / 8.2 m/s N/A   Clear
6:35 PM 25.0 °C - 13.0 °C 47% 1023.9 hPa 16.1 km WSW 11.1 km/h / 3.1 m/s - N/A   Clear
6:55 PM 24.0 °C - 13.0 °C 50% 1023.9 hPa 16.1 km NNE 11.1 km/h / 3.1 m/s - N/A   Clear
7:15 PM 25.0 °C - 12.0 °C 44% 1023.9 hPa 16.1 km NNE 5.6 km/h / 1.5 m/s - N/A   Clear
7:35 PM 25.0 °C - 13.0 °C 47% 1024.6 hPa - WSW 7.4 km/h / 2.1 m/s - N/A   Scattered Clouds
7:55 PM 24.0 °C - 13.0 °C 50% 1024.6 hPa - Calm Calm - N/A   Scattered Clouds
8:15 PM 23.0 °C - 14.0 °C 57% 1024.9 hPa - Calm Calm - N/A   Clear
8:35 PM 23.0 °C - 15.0 °C 61% 1024.6 hPa - Calm Calm - N/A   Scattered Clouds
8:55 PM 22.0 °C - 15.0 °C 64% 1024.6 hPa - NE 5.6 km/h / 1.5 m/s - N/A   Clear
9:15 PM 21.0 °C - 17.0 °C 78% 1025.3 hPa - SSW 7.4 km/h / 2.1 m/s - N/A   Clear
9:35 PM 21.0 °C - 17.0 °C 78% 1025.3 hPa - Calm Calm - N/A   Clear
9:55 PM 21.0 °C - 16.0 °C 73% 1025.3 hPa - SE 5.6 km/h / 1.5 m/s - N/A   Clear
10:15 PM 21.0 °C - 15.0 °C 68% 1024.9 hPa - ESE 7.4 km/h / 2.1 m/s - N/A   Clear
10:35 PM 20.0 °C - 15.0 °C 73% 1024.9 hPa - Calm Calm - N/A   Scattered Clouds
10:55 PM 21.0 °C - 15.0 °C 68% 1024.6 hPa - SSE 7.4 km/h / 2.1 m/s - N/A   Mostly Cloudy
11:15 PM 21.0 °C - 15.0 °C 68% 1024.6 hPa - SSE 5.6 km/h / 1.5 m/s - N/A   Overcast
11:35 PM 21.0 °C - 15.0 °C 68% 1024.6 hPa - SE 5.6 km/h / 1.5 m/s - N/A   Scattered Clouds
11:55 PM 21.0 °C - 15.0 °C 68% 1024.6 hPa - SSE 7.4 km/h / 2.1 m/s - N/A   Scattered Clouds